{"data":{"norad_id":66100,"intl_designator":"2025-236Q","name":"STARLINK-35609","alt_names":[],"object_type":"PAYLOAD","status":"ACTIVE","operator":null,"country":"US","launch_date":"2025-10-19","launch_site_code":"AFWTR","launch_vehicle":null,"mission":null,"orbit_class":"UNKNOWN","rcs_meters":null,"size_class":null,"mass_kg":null,"dimensions":null,"purposes":["comms"],"wikipedia_slug":null,"has_3d_model":false,"image_url":null,"decayed_at":null,"tle_current":{"epoch":"2026-09-20T12:50:19.432896Z","epoch_age_seconds":97418,"freshness":"FRESH","line1":"1 66100U 25236Q   26263.53494714  .00011706  00000+0  35698-3 0  9995","line2":"2 66100  53.1590 275.4789 0001262  56.2731 303.8392 15.34406401 52761","mean_motion":15.34406401,"eccentricity":0.0001262,"inclination_deg":53.159,"raan_deg":275.4789,"arg_perigee_deg":56.2731,"mean_anomaly_deg":303.8392,"bstar":0.00035698,"rev_number":5276,"period_min":93.84736658173,"perigee_km":461.82090351494,"apogee_km":463.54752678965,"semimajor_km":6840.8212151523,"source":"CELESTRAK","updated_at":"2026-09-21T09:00:35.803001Z"}}}